TimeCDT,TemperatureF,Dew PointF,Humidity,Sea Level PressureIn,VisibilityMPH,Wind Direction,Wind SpeedMPH,Gust SpeedMPH,PrecipitationIn,Events,Conditions,WindDirDegrees,DateUTC
12:01 AM,59.0,55.4,88,29.55,10.0,ESE,4.6,-,N/A,,Clear,120,2013-04-30 05:01:00
12:22 AM,57.2,55.4,94,29.54,7.0,East,4.6,-,N/A,,Clear,100,2013-04-30 05:22:00
12:42 AM,55.4,53.6,94,29.52,7.0,East,5.8,-,N/A,,Clear,90,2013-04-30 05:42:00
1:02 AM,55.4,53.6,94,29.51,7.0,East,5.8,-,N/A,,Clear,100,2013-04-30 06:02:00
1:22 AM,55.4,53.6,94,29.51,7.0,East,4.6,-,N/A,,Clear,100,2013-04-30 06:22:00
1:42 AM,55.4,53.6,94,29.50,7.0,ESE,5.8,-,N/A,,Clear,110,2013-04-30 06:42:00
2:21 AM,55.4,53.6,94,29.49,7.0,SE,5.8,-,N/A,,Clear,130,2013-04-30 07:21:00
2:42 AM,57.2,53.6,88,29.48,10.0,SE,5.8,-,N/A,,Clear,130,2013-04-30 07:42:00
3:02 AM,59.0,53.6,82,29.47,10.0,SE,8.1,-,N/A,,Clear,140,2013-04-30 08:02:00
3:21 AM,57.2,53.6,88,29.46,10.0,SE,5.8,-,N/A,,Clear,140,2013-04-30 08:21:00
3:42 AM,57.2,53.6,88,29.46,10.0,SE,5.8,-,N/A,,Clear,140,2013-04-30 08:42:00
4:01 AM,57.2,53.6,88,29.46,10.0,SE,6.9,-,N/A,,Clear,140,2013-04-30 09:01:00
4:22 AM,57.2,53.6,88,29.45,10.0,SE,5.8,-,N/A,,Clear,140,2013-04-30 09:22:00
4:42 AM,57.2,53.6,88,29.45,10.0,SE,4.6,-,N/A,,Clear,140,2013-04-30 09:42:00
5:01 AM,57.2,53.6,88,29.45,10.0,SSE,5.8,-,N/A,,Clear,150,2013-04-30 10:01:00
5:22 AM,57.2,55.4,94,29.44,10.0,SSE,8.1,-,N/A,,Clear,160,2013-04-30 10:22:00
5:41 AM,59.0,55.4,88,29.44,10.0,SSE,6.9,-,N/A,,Clear,160,2013-04-30 10:41:00
6:02 AM,60.8,55.4,82,29.44,10.0,South,4.6,-,N/A,,Clear,170,2013-04-30 11:02:00
6:22 AM,60.8,57.2,88,29.44,10.0,South,9.2,-,N/A,,Clear,170,2013-04-30 11:22:00
6:42 AM,62.6,57.2,82,29.43,10.0,South,11.5,17.3,N/A,,Clear,180,2013-04-30 11:42:00
7:02 AM,64.4,57.2,77,29.44,10.0,South,15.0,20.7,N/A,,Clear,190,2013-04-30 12:02:00
7:21 AM,64.4,57.2,77,29.44,10.0,South,15.0,24.2,N/A,,Clear,190,2013-04-30 12:21:00
7:42 AM,66.2,57.2,73,29.45,10.0,South,15.0,20.7,N/A,,Clear,190,2013-04-30 12:42:00
8:01 AM,66.2,57.2,73,29.46,10.0,SSW,11.5,20.7,N/A,,Clear,210,2013-04-30 13:01:00
8:22 AM,69.8,57.2,64,29.47,10.0,SW,8.1,19.6,N/A,,Clear,220,2013-04-30 13:22:00
8:42 AM,69.8,57.2,64,29.48,10.0,WSW,11.5,18.4,N/A,,Scattered Clouds,240,2013-04-30 13:42:00
9:01 AM,69.8,55.4,60,29.49,10.0,WSW,12.7,23.0,N/A,,Clear,250,2013-04-30 14:01:00
9:22 AM,68.0,53.6,60,29.50,10.0,West,17.3,24.2,N/A,,Clear,260,2013-04-30 14:22:00
9:41 AM,66.2,51.8,60,29.53,10.0,West,9.2,20.7,N/A,,Clear,260,2013-04-30 14:41:00
10:02 AM,66.2,50.0,56,29.55,10.0,WSW,15.0,21.9,N/A,,Clear,250,2013-04-30 15:02:00
10:22 AM,64.4,48.2,56,29.56,10.0,West,13.8,18.4,N/A,,Clear,280,2013-04-30 15:22:00
10:42 AM,64.4,48.2,56,29.57,10.0,West,18.4,-,N/A,,Clear,280,2013-04-30 15:42:00
11:02 AM,66.2,48.2,52,29.58,10.0,West,17.3,28.8,N/A,,Clear,280,2013-04-30 16:02:00
11:21 AM,64.4,48.2,56,29.60,10.0,West,18.4,23.0,N/A,,Clear,280,2013-04-30 16:21:00
11:42 AM,64.4,46.4,52,29.62,10.0,WNW,19.6,27.6,N/A,,Clear,300,2013-04-30 16:42:00
12:01 PM,64.4,46.4,52,29.64,10.0,West,13.8,-,N/A,,Clear,280,2013-04-30 17:01:00
12:22 PM,62.6,46.4,55,29.64,10.0,WNW,15.0,24.2,N/A,,Clear,300,2013-04-30 17:22:00
12:42 PM,64.4,46.4,52,29.67,10.0,West,12.7,21.9,N/A,,Clear,280,2013-04-30 17:42:00
1:01 PM,64.4,46.4,52,29.66,10.0,West,16.1,21.9,N/A,,Clear,280,2013-04-30 18:01:00
1:22 PM,66.2,46.4,49,29.67,10.0,WNW,15.0,21.9,N/A,,Clear,290,2013-04-30 18:22:00
1:42 PM,64.4,46.4,52,29.69,10.0,West,15.0,-,N/A,,Clear,270,2013-04-30 18:42:00
2:01 PM,66.2,44.6,46,29.68,10.0,WNW,10.4,17.3,N/A,,Clear,300,2013-04-30 19:01:00
2:22 PM,66.2,42.8,43,29.70,10.0,WNW,12.7,20.7,N/A,,Clear,290,2013-04-30 19:22:00
2:41 PM,66.2,39.2,37,29.72,10.0,West,6.9,23.0,N/A,,Clear,280,2013-04-30 19:41:00
3:02 PM,66.2,42.8,43,29.74,10.0,West,10.4,-,N/A,,Clear,260,2013-04-30 20:02:00
3:22 PM,64.4,42.8,45,29.72,10.0,WNW,8.1,-,N/A,,Clear,300,2013-04-30 20:22:00
3:41 PM,64.4,42.8,45,29.74,10.0,West,9.2,-,N/A,,Clear,270,2013-04-30 20:41:00
4:02 PM,64.4,42.8,45,29.75,10.0,SW,4.6,-,N/A,,Clear,220,2013-04-30 21:02:00
4:21 PM,66.2,41.0,40,29.78,10.0,WSW,8.1,-,N/A,,Clear,250,2013-04-30 21:21:00
4:42 PM,64.4,39.2,40,29.80,10.0,WSW,9.2,-,N/A,,Clear,250,2013-04-30 21:42:00
5:01 PM,64.4,41.0,42,29.80,10.0,West,8.1,-,N/A,,Clear,280,2013-04-30 22:01:00
5:22 PM,64.4,41.0,42,29.82,7.0,WSW,5.8,-,N/A,,Clear,250,2013-04-30 22:22:00
5:41 PM,64.4,39.2,40,29.82,10.0,West,9.2,-,N/A,,Clear,280,2013-04-30 22:41:00
6:02 PM,64.4,37.4,37,29.82,10.0,West,6.9,-,N/A,,Clear,280,2013-04-30 23:02:00
6:22 PM,64.4,33.8,32,29.82,10.0,West,11.5,23.0,N/A,,Clear,280,2013-04-30 23:22:00
6:41 PM,64.4,33.8,32,29.81,10.0,WNW,13.8,-,N/A,,Scattered Clouds,300,2013-04-30 23:41:00
7:02 PM,64.4,33.8,32,29.81,10.0,NW,12.7,18.4,N/A,,Scattered Clouds,310,2013-05-01 00:02:00
7:22 PM,62.6,30.2,30,29.80,10.0,NW,15.0,-,N/A,,Clear,320,2013-05-01 00:22:00
7:42 PM,62.6,30.2,30,29.81,10.0,NW,11.5,-,N/A,,Clear,310,2013-05-01 00:42:00
8:02 PM,60.8,28.4,29,29.83,10.0,NW,9.2,16.1,N/A,,Clear,310,2013-05-01 01:02:00
8:21 PM,57.2,30.2,36,29.84,10.0,WNW,8.1,-,N/A,,Scattered Clouds,300,2013-05-01 01:21:00
8:42 PM,55.4,30.2,38,29.86,10.0,WNW,6.9,-,N/A,,Scattered Clouds,300,2013-05-01 01:42:00
9:02 PM,55.4,32.0,41,29.87,10.0,NW,6.9,-,N/A,,Scattered Clouds,310,2013-05-01 02:02:00
9:22 PM,55.4,32.0,41,29.89,10.0,West,5.8,-,N/A,,Scattered Clouds,280,2013-05-01 02:22:00
9:42 PM,55.4,35.6,47,29.90,10.0,WNW,4.6,-,N/A,,Mostly Cloudy,290,2013-05-01 02:42:00
10:01 PM,55.4,35.6,47,29.91,10.0,West,3.5,-,N/A,,Overcast,280,2013-05-01 03:01:00
10:22 PM,55.4,35.6,47,29.94,10.0,West,5.8,-,N/A,Thunderstorm,Overcast,260,2013-05-01 03:22:00
10:41 PM,55.4,37.4,51,29.92,10.0,Calm,Calm,-,N/A,,Overcast,0,2013-05-01 03:41:00
11:02 PM,53.6,39.2,58,29.94,10.0,WNW,4.6,-,N/A,,Mostly Cloudy,290,2013-05-01 04:02:00
11:22 PM,53.6,37.4,54,29.95,10.0,WNW,3.5,-,N/A,,Overcast,300,2013-05-01 04:22:00
11:41 PM,55.4,37.4,51,29.97,10.0,WNW,6.9,-,N/A,,Overcast,300,2013-05-01 04:41:00